Weather observations for the past three days for
Phoenix-Mesa Gateway Airport
Metric (Imperial)
Date Time (mst) Wind (kph) Vis. (km) Weather Sky Cond. Temperature (ºC) Relative Humidity Wind Chill (°C) Heat Index (°C) Pressure Precipitation (cm)
Air Dwpt 6 hour altimeter (cm) sea level (mb) 1 hr 3 hr 6 hr
Max. Min.
08 11:51 Calm 16.09 Fair CLR 31 1 15% 29 75.95 0.0
08 10:47 Calm 16.09 Fair CLR 29 1 16% 27 76 0.0
08 09:50 Calm 16.09 Fair CLR 28 2 19% 27 76.02 0.0
08 08:51 SE 15 16.09 Fair CLR 26 2 21% 26 76.02 0.0
08 07:49 SE 17 16.09 Fair CLR 24 2 24% 25 76.05 0.0
08 06:49 SE 15 16.09 Fair CLR 22 2 27% 76.02 0.0
08 05:49 E 15 16.09 Fair CLR 19 0 28% 75.95 0.0
08 04:50 E 17 16.09 Fair CLR 20 1 28% 75.92 0.0
08 04:35 E 20 16.09 Fair CLR 20.3 1.2 28% 75.92 0.0
08 04:15 E 19 16.09 Fair CLR 20.1 1.2 28% 75.92 0.0
08 03:55 E 15 16.09 Fair CLR 20.9 1.9 28% 75.92 0.0
08 03:35 E 20 16.09 Fair CLR 21.5 1.8 27% 75.9 0.0
08 03:15 SE 15 16.09 Fair CLR 21.7 1.6 27% 75.87 0.0
08 02:55 SE 20 16.09 Fair CLR 21.7 1.7 27% 75.87 0.0
08 02:35 E 17 16.09 Fair CLR 21 0.4 25% 75.87 0.0
08 02:15 E 17 16.09 Fair CLR 21.2 2 28% 75.87 0.0
08 01:55 E 19 16.09 Fair CLR 21.3 2 28% 75.9 0.0
08 01:35 E 17 16.09 Fair CLR 21.5 1.7 27% 75.9 0.0
08 01:15 E 17 16.09 Fair CLR 21.6 -0.1 24% 75.9 0.0
08 00:55 E 15 16.09 Fair CLR 21.8 -3.2 19% 75.9 0.0
08 00:35 E 19 16.09 Fair CLR 22.3 -4.5 16% 75.9 0.0
08 00:15 SE 15 16.09 Fair CLR 22.6 -4.9 16% 75.9 0.0
07 23:50 E 17 16.09 Fair CLR 23 -4 16% 75.9 0.0
07 22:51 Calm 16.09 Fair CLR 26 -5 12% 25 75.87 0.0
07 21:53 SW 6 16.09 Fair CLR 26 -5 12% 25 75.84 0.0
07 20:50 SW 13 16.09 Fair CLR 28 -6 10% 27 75.79 0.0
07 19:48 SW 15 16.09 Fair CLR 30 -8 8% 28 75.72 0.0
07 18:50 W 19 16.09 Fair CLR 32 -8 7% 30 75.69 0.0
07 17:50 W 24 16.09 Fair CLR 34 -9 6% 31 75.67 0.0
07 16:57 Calm 16.09 Fair CLR 34 -10 5% 32 75.69 0.0
07 15:53 W 22 16.09 Fair CLR 34 -7 7% 31 75.72 0.0
07 14:50 NW 13 16.09 Fair CLR 34 -7 7% 31 75.77 0.0
07 13:50 W 19 16.09 Fair CLR 33 -7 7% 31 75.82 0.0
07 12:48 S 7 16.09 Fair CLR 32 -7 7% 30 75.92 0.0
07 11:51 Vrbl 7 16.09 Fair CLR 31 -5 9% 29 75.97 0.0
07 10:55 Vrbl 7 16.09 Fair CLR 29 -4 11% 27 76.02 0.0
07 09:54 Vrbl 6 16.09 Fair CLR 27 -1 16% 26 76.07 0.0
07 08:50 Calm 16.09 Fair CLR 24 1 22% 25 76.1 0.0
07 07:47 S 15 0.00 Fair CLR 21 1 27% 76.1 0.0
07 06:50 E 11 16.09 Fair CLR 18 2 34% 76.07 0.0
07 05:50 SE 7 16.09 Fair CLR 16 3 42% 76.05 0.0
07 04:50 SE 7 16.09 Fair CLR 16 3 42% 76.02 0.0
07 04:35 SE 6 16.09 Fair CLR 16.4 3 41% 76.02 0.0
07 04:15 W 6 16.09 Fair CLR 17.3 1.5 35% 76.02 0.0
07 03:55 NW 6 16.09 Fair CLR 19.4 1.5 30% 76.02 0.0
07 03:35 Calm 16.09 Fair CLR 20 1.6 30% 76.05 0.0
07 03:15 NW 6 16.09 Fair CLR 20 1.5 29% 76.05 0.0
07 02:55 NW 6 16.09 Fair CLR 19.1 2.3 33% 76.07 0.0
07 02:35 Calm 16.09 Fair CLR 19.4 2.5 33% 76.07 0.0
07 02:15 Calm 16.09 Fair CLR 19.2 2.6 33% 76.07 0.0
07 01:55 NE 6 16.09 Fair CLR 20.4 2.5 31% 76.1 0.0
07 01:35 NE 9 16.09 Fair CLR 20.5 3.4 33% 76.1 0.0
07 01:15 NE 9 16.09 Fair CLR 20.4 4.2 35% 76.1 0.0
07 00:55 NE 9 16.09 Fair CLR 19.9 4.8 37% 76.12 0.0
07 00:35 NE 6 16.09 Fair CLR 20.8 3.4 32% 76.1 0.0
07 00:15 SE 7 16.09 Fair CLR 19.5 4.6 38% 76.12 0.0
06 23:47 Calm 16.09 Fair CLR 22 3 29% 76.1 0.0
06 22:47 Calm 16.09 Fair CLR 23 1 23% 76.1 0.0
06 21:48 Calm 16.09 Fair CLR 24 0 21% 25 76.07 0.0
06 20:55 SW 6 16.09 Fair CLR 24 0 21% 25 76.05 0.0
06 19:50 W 9 16.09 Fair CLR 25 0 19% 25 76 0.0
06 18:53 Calm 16.09 Fair CLR 27 0 17% 26 75.97 0.0
06 17:55 W 13 16.09 Fair CLR 27 0 17% 26 75.97 0.0
06 16:47 S 7 16.09 Fair CLR 27 0 17% 26 75.97 0.0
06 15:48 NW 13 16.09 Fair CLR 28 0 16% 27 76.02 0.0
06 14:53 NW 7 16.09 Fair CLR 27 0 17% 26 76.05 0.0
06 13:50 W 16685 16.09 Fair and Windy CLR 26 1 20% 25 76.12 0.0
06 12:50 NW 9 16.09 Fair CLR 25 1 21% 25 76.17 0.0
06 11:47 W 13 16.09 Fair CLR 24 2 24% 25 76.23 0.0
06 09:47 Vrbl 7 16.09 Fair CLR 21 2 29% 76.28 0.0
06 08:49 Calm 16.09 Fair CLR 20 3 33% 76.25 0.0
06 07:50 Calm 16.09 Fair CLR 18 3 37% 76.25 0.0
06 06:47 SE 11 16.09 Fair CLR 15 3 45% 76.2 0.0
06 05:48 SE 7 16.09 Fair CLR 12 2 51% 76.15 0.0
06 04:51 SE 13 16.09 Fair CLR 13 2 47% 76.12 0.0
06 04:35 SE 11 16.09 Fair CLR 13.2 2.3 48% 76.12 0.0
06 04:15 SE 6 16.09 Fair CLR 13.4 3.1 50% 76.12 0.0
06 03:55 SE 7 16.09 Fair CLR 14.1 2.8 47% 76.1 0.0
06 03:35 SE 9 16.09 Fair CLR 13.2 3.3 51% 76.1 0.0
06 03:15 SE 6 16.09 Fair CLR 14.2 5 54% 76.07 0.0
06 02:55 SE 7 16.09 Fair CLR 14.7 5.4 54% 76.07 0.0
06 02:35 E 6 16.09 Fair CLR 15.8 4.8 48% 76.07 0.0
06 02:15 E 9 16.09 Fair CLR 16.2 4.3 45% 76.05 0.0
06 01:55 E 9 16.09 Fair CLR 15.9 4.4 47% 76.05 0.0
06 01:35 E 9 16.09 Fair CLR 16.2 4.8 47% 76.05 0.0
06 01:15 SE 9 16.09 Fair CLR 15.9 3.9 45% 76.05 0.0
06 00:55 S 6 16.09 Fair CLR 15.9 3.6 44% 76.05 0.0
06 00:35 SE 7 16.09 Fair CLR 17.3 3.7 41% 76.05 0.0
06 00:15 SE 7 16.09 Fair CLR 16.5 2.6 40% 76.05 0.0
05 23:47 Calm 16.09 Fair CLR 18 2 34% 76.02 0.0
05 22:55 W 9 16.09 Fair CLR 19 1 30% 76 0.0
05 21:48 W 13 16.09 Fair CLR 20 0 26% 75.97 0.0
05 20:47 W 17 16.09 Fair CLR 22 0 23% 75.92 0.0
05 19:52 W 24 16.09 Partly Cloudy SCT090 22 0 23% 75.84 0.0
05 18:56 W 20 G 37 16.09 Mostly Cloudy BKN090 23 0 22% 75.79 0.0
05 17:48 W 28 G 37 16.09 Partly Cloudy SCT090 24 1 22% 25 75.77 0.0
05 16:50 SW 20 G 41 16.09 Partly Cloudy SCT090 25 1 21% 25 75.74 0.0
05 15:50 W 31 G 44 16.09 Partly Cloudy SCT090 25 2 22% 25 75.74 0.0
05 14:49 W 31 G 39 16.09 Mostly Cloudy BKN080 25 3 24% 25 75.79 0.0
05 13:47 W 22 G 33 16.09 Mostly Cloudy SCT070 BKN090 24 6 31% 25 75.84 0.0
05 12:55 SW 13 G 30 16.09 Mostly Cloudy SCT060 BKN070 BKN080 23 7 36% 75.84 0.0
Date Time (mst) Wind (kph) Vis. (km) Weather Sky Cond. Air Dwpt Max. Min. Relative Humidity Wind Chill (°C) Heat Index (°C) altimeter (cm) sea level (mb) 1 hr 3 hr 6 hr
6 hour
Temperature (ºC) Pressure Precipitation (cm)